Погода в Зырянке

Погода в Зырянке : погода сейчас, прогноз погоды и архив. Всё, что Вы хотите узнать о погоде в Зырянке!

Хотите узнать прогноз погоды в Зырянке? Тогда Вам сюда: Погода в Зырянке

Поиск расширенной информации на нашем сайте:

Другие новости

Новости СМИ2

Главная страница сайта

Новости сайта

02.10.2013

Напоминаем, что на нашем новом сайте вы можете получить высокодетализированные прогнозы погоды по пунктам России, СНГ и мира (включающие важные для авиации метеовеличины, такие как направление и скорость ветра, видимость, явления погоды, количество и форма облачности, нижняя и верхняя граница облачности), а также ознакомиться с разнообразными материалами по авиационной метеорологии и подборкой полезных ссылок на эту тему.

Сайт Метеоцентр.Азия посвящён разработке технологий оптимизации авиаметеорологического обслуживания, включая проектирование и перспективное создание нескольких автоматизированных авиаметеорологических систем:
- система выпуска высокодетальных прогностических карт явлений погоды для нижнего воздушного пространства по России и ближнему зарубежью;
- система верификации прогнозов TAF (выпускаемых синоптиками официальных АМСГ РФ и ближнего зарубежья) и AUTOTAF (выпускаемых сайтом Метеоцентр.Азия) - выявление ошибок, онлайн-сопоставление с фактической погодой METAR, автоматическое внесение коррективов в прогнозы при резком отклонении фактической погоды от прогноза, подсчёт оправдываемости прогнозов по элементам и в целом;
- система обработки, анализа и отображения авиаметеорологической информации для применения провайдерами метеорологической информации.

Рекомендуем: 2016 следующий год какого животного кого

Погода в Зырянке - сегодня

Время (UTC), дата Ветер
(°,м/с) 
Видим.   Явления Облачность Т
(°С)
Тd
(°С)
f(%) Тe
(°С)
Pmin
(гПа)
dP
(гПа)
Po
(мм)
O2
(г/м3)
Тmin Tmax R s Состояние
почвы
15 24.03.17 тихо ()   20000 м    ясно 
-22.7 -25.2 80 -23  1015.8  757  335           
18 24.03.17 тихо ()   20000 м    ясно 
-25.6 -28.1 80 -26  1016.2  0.4  758  339           
21 24.03.17 тихо ()   20000 м    ясно 
-26.2 -28.7 79 -26  1017  0.8  758  340  -28.3      70  неравномерный
сухой снег
100% 
00 25.03.17 тихо ()   20000 м    ясно 
-12.9 -16.4 75 -13  1017.3  0.5  759  322           
03 25.03.17 280 (З) 20000 м    ясно 
-6.6 -14.3 54 -8  1016.7  -0.3  758  314           
06 25.03.17 360 (С) 20000 м    ясно 
-6.2 -14.3 53 -6  1016.8  0.1  758  314           
09 25.03.17 250 (З) 20000 м    ясно 
-9.7 -16.9 56 -10  1018.1  1.1  759  319    -6       
12 25.03.17 тихо ()   20000 м    ясно 
-18 -20.6 80 -18  1019.1  0.8  760  329           
15 25.03.17 тихо ()   20000 м    ясно 
-22.4 -24.9 80 -22  1018.8  -0.3  760  335           
18 25.03.17 тихо ()   20000 м    ясно 
-24 -26.5 80 -24  1018.9  760  337           
21 25.03.17 160 (Ю) 20000 м    ясно 
-24.1 -26.7 79 -25  1019  0.1  760  338  -25.4      70  неравномерный
сухой снег
100% 
00 26.03.17 130 (ЮВ) 20000 м    ясно 
-13.8 -18.1 70 -16  1017.9  -0.9  759  324           
03 26.03.17 140 (ЮВ) 20000 м    ясно 
-8.4 -14.2 63 -10  1015.7  -2.1  758  316           
06 26.03.17 150 (ЮВ) 20000 м    ясно 
-5.4 -13 55 -9  1017.3  -1.8  756  312           
09 26.03.17 150 (ЮВ) 20000 м    ясно 
-7.4 -15 54 -9  1013.1  -0.6  756  314    -5       
12 26.03.17 тихо ()   20000 м    3/0 верхняя 
[Ci fib]
-15.3 -18 80 -15  1013.4  756  324           
15 26.03.17 тихо ()   20000 м    3/0 верхняя 
[Ci fib]
-16.8 -19.4 80 -17  1013.4  0.1  756  326           
18 26.03.17 тихо ()   20000 м    3/0 верхняя 
[Ci fib]
-18.6 -21.2 80 -19  1014.1  0.6  756  329           
21 26.03.17 160 (Ю) 20000 м    ясно 
-19.2 -21.8 80 -22  1014.5  0.4  756  329  -22.3      69  неравномерный
сухой снег
100% 
00 27.03.17 150 (ЮВ) 20000 м    ясно 
-11.3 -15.7 70 -14  1014.3  756  319           
03 27.03.17 130 (ЮВ) 20000 м    ясно 
-6.7 -12.8 62 -9  1012.7  -1.4  755  313           
06 27.03.17 140 (ЮВ) 20000 м    ясно 
-5.7 -14 52 -8  1011.8  -0.9  755  312           
09 27.03.17 150 (ЮВ) 20000 м    ясно 
-7.4 -15 54 -9  1011.7  -0.1  755  314    -5.7       
12 27.03.17 150 (ЮВ) 20000 м    ясно 
-10.7 -16 65 -13  1011.9  755  318           
15 27.03.17 150 (ЮВ) 20000 м    ясно 
-14.1 -16.8 80 -18  1010.9  -1.1  754  322           
Время (UTC), дата Ветер
(°,м/с) 
Видим.   Явления Облачность Т
(°С)
Тd
(°С)
f(%) Тe
(°С)
Pmin
(гПа)
dP
(гПа)
Po
(мм)
O2
(г/м3)
Тmin Tmax R s Состояние
почвы

Для получения пояснительной информации подведите курсор к названию столбца.

ПОГОДА в Зырянке - архив

Всё, что Вы хотите узнать о погоде в Зырянке - удобно и подробно!

Выберите нужную дату (начиная с 1 января 2015* года) и нажмите кнопку "Найти".
Будут отображены архивные сводки погоды по пункту Зырянка, начиная с указанной даты.


Отображать данные в формате CSV (для использования в таблицах Excel)


Внимание! Наш архив погоды предназначен исключительно для личного некоммерческого использования в познавательных целях. Если Вам необходимы официальные справки о состоянии погоды (для производственных, юридических, коммерческих и т.п. целей), обращайтесь в органы Росгидромета.

*Примечание: данная дата относится к архиву по метеостанциям СССР (Россия, СНГ, Балтия).
Архив по метеостанциям Зарубежной Европы и Азии (кроме Китая) хранится 10 дней, по другим регионам земного шара (Китай, Африка, Америка, Австралия, Океания) - 1 день.

Зырянка - район местоположения метеостанции


Название, широта, долгота, высота метеостанции:
Зырянка 65.7°ш. 150.9°д. 43 м над ур. моря [Российская Федерация]

Дополнительная информация

В oтличие oт бoльшинства пoгoдных сайтoв мы публикуем пoдрoбную метеoинфoрмацию в детальнoм прoфессиoнальнoм фoрмате.

Характеристики температуры и влажнoсти вoздуха измеряются на высoте 2 м в тени вдали oт зданий и деревьев.
Скoрoсть ветра измеряется на высoте 10 м (на урoвне рoста челoвека скoрoсть ветра ниже в 1.5-2 раза). Если метеoстанция нахoдится в гoрoде или в лесу, тo скoрoсть ветра занижена на 2-4 м/с пo сравнению с oткрытым местoм. Скoрoсть ветра над акватoриями крупных рек и oзёр, а также на вершинах хoлмoв на 2-5 м/с выше, чем в oбычных услoвиях.
Атмoсфернoе давление в разных тoчках местнoсти мoжет значительнo oтличаться oт давления на метеoстанции, в зависимoсти oт услoвий рельефа (при пoдъёме на 10 м давление пoнижается примернo на 1 мм рт.ст.).